| time (UTC) | temp F | wind direction | speed knots | gust knots | rain 1hr in | rain 24hr in | rain mn in | humidity % | barometer mb |
| 20260903210124 | 68 | 0 | 0.0 | 7.8 | 0.00 | 0.23 | 0.01 | 57 | 1009.8 |
| 20260903204557 | 68 | 0 | 0.0 | 4.3 | 0.00 | 0.24 | 0.01 | 56 | 1010.1 |
| 20260903203113 | 66 | 0 | 0.9 | 9.6 | 0.00 | 0.24 | 0.01 | 61 | 1010.3 |
| 20260903201558 | 66 | 32 | 0.9 | 8.7 | 0.00 | 0.24 | 0.01 | 59 | 1010.5 |
| 20260903200056 | 66 | 81 | 0.9 | 6.1 | 0.00 | 0.24 | 0.01 | 60 | 1010.6 |
| 20260903194602 | 65 | 0 | 0.9 | 6.1 | 0.00 | 0.25 | 0.01 | 65 | 1010.7 |
| 20260903193101 | 64 | 0 | 0.9 | 5.2 | 0.00 | 0.25 | 0.01 | 66 | 1010.9 |
| 20260903191554 | 62 | 219 | 0.9 | 7.8 | 0.00 | 0.25 | 0.01 | 68 | 1011.3 |
| 20260903190054 | 62 | 0 | 0.0 | 7.0 | 0.00 | 0.25 | 0.01 | 72 | 1011.4 |
| 20260903184553 | 61 | 0 | 0.0 | 2.6 | 0.00 | 0.27 | 0.01 | 75 | 1011.4 |
| 20260903183057 | 60 | 0 | 0.0 | 3.5 | 0.00 | 0.27 | 0.01 | 77 | 1011.4 |
| 20260903181552 | 60 | 0 | 0.0 | 4.3 | 0.00 | 0.27 | 0.01 | 80 | 1011.4 |
| 20260903180100 | 59 | 0 | 0.0 | 3.5 | 0.00 | 0.27 | 0.01 | 79 | 1011.4 |
| 20260903174558 | 59 | 0 | 0.0 | 4.3 | 0.00 | 0.41 | 0.01 | 82 | 1011.3 |
| 20260903173052 | 58 | 223 | 0.0 | 2.6 | 0.00 | 0.41 | 0.01 | 84 | 1011.3 |
| 20260903171551 | 58 | 0 | 0.0 | 3.5 | 0.00 | 0.41 | 0.01 | 83 | 1011.2 |
| 20260903170058 | 58 | 0 | 0.0 | 3.5 | 0.00 | 0.41 | 0.01 | 84 | 1011.2 |
| 20260903164618 | 57 | 0 | 0.0 | 2.6 | 0.00 | 0.45 | 0.01 | 86 | 1011.3 |
| 20260903163058 | 56 | 0 | 0.0 | 2.6 | 0.00 | 0.45 | 0.01 | 88 | 1011.3 |
| 20260903161600 | 56 | 0 | 0.0 | 1.7 | 0.00 | 0.45 | 0.01 | 89 | 1011.5 |
| 20260903160121 | 56 | 237 | 0.0 | 5.2 | 0.00 | 0.45 | 0.01 | 89 | 1011.5 |
| 20260903154607 | 55 | 0 | 0.0 | 2.6 | 0.00 | 0.47 | 0.01 | 90 | 1011.6 |
| 20260903153055 | 55 | 0 | 0.0 | 2.6 | 0.00 | 0.47 | 0.01 | 91 | 1011.7 |
| 20260903151554 | 55 | 234 | 0.0 | 3.5 | 0.00 | 0.47 | 0.01 | 90 | 1011.6 |
| 20260903150053 | 54 | 207 | 0.0 | 2.6 | 0.00 | 0.47 | 0.01 | 91 | 1011.6 |
| 20260903144605 | 54 | 0 | 0.0 | 3.5 | 0.00 | 0.47 | 0.01 | 91 | 1011.6 |
| 20260903143109 | 54 | 0 | 0.0 | 5.2 | 0.00 | 0.47 | 0.01 | 92 | 1011.5 |
| 20260903141604 | 54 | 202 | 0.0 | 2.6 | 0.00 | 0.47 | 0.01 | 92 | 1011.4 |
| 20260903140058 | 54 | 227 | 0.0 | 3.5 | 0.00 | 0.47 | 0.01 | 92 | 1011.2 |
| 20260903134558 | 54 | 232 | 0.0 | 2.6 | 0.00 | 0.47 | 0.01 | 92 | 1011.2 |
| 20260903133050 | 54 | 229 | 0.0 | 2.6 | 0.00 | 0.47 | 0.01 | 92 | 1011.2 |
| 20260903131600 | 54 | 0 | 0.0 | 2.6 | 0.00 | 0.47 | 0.01 | 93 | 1011.2 |
| 20260903130105 | 54 | 0 | 0.0 | 1.7 | 0.00 | 0.47 | 0.01 | 93 | 1011.2 |
| 20260903124606 | 54 | 0 | 0.0 | 0.9 | 0.00 | 0.47 | 0.01 | 93 | 1011.4 |
| 20260903123056 | 54 | 0 | 0.0 | 1.7 | 0.00 | 0.47 | 0.01 | 93 | 1011.3 |
| 20260903121556 | 54 | 0 | 0.0 | 1.7 | 0.00 | 0.47 | 0.01 | 93 | 1011.4 |
| 20260903120107 | 54 | 0 | 0.0 | 0.9 | 0.00 | 0.47 | 0.01 | 92 | 1011.6 |
| 20260903114606 | 54 | 0 | 0.0 | 1.7 | 0.00 | 0.47 | 0.01 | 92 | 1011.6 |
| 20260903113056 | 54 | 218 | 0.0 | 1.7 | 0.00 | 0.47 | 0.01 | 92 | 1011.4 |
| 20260903111603 | 54 | 0 | 0.0 | 0.9 | 0.00 | 0.47 | 0.01 | 91 | 1011.5 |
| 20260903110104 | 54 | 0 | 0.0 | 5.2 | 0.00 | 0.47 | 0.01 | 91 | 1011.4 |
| 20260903104559 | 54 | 0 | 0.0 | 3.5 | 0.00 | 0.47 | 0.01 | 91 | 1011.5 |
| 20260903103100 | 54 | 224 | 0.0 | 5.2 | 0.00 | 0.47 | 0.01 | 91 | 1011.6 |
| 20260903101605 | 54 | 0 | 0.0 | 2.6 | 0.00 | 0.47 | 0.01 | 92 | 1011.6 |
| 20260903100053 | 54 | 211 | 0.9 | 4.3 | 0.00 | 0.47 | 0.01 | 92 | 1011.7 |
| 20260903094559 | 54 | 0 | 0.0 | 1.7 | 0.00 | 0.47 | 0.01 | 93 | 1011.8 |
| 20260903093109 | 54 | 0 | 0.0 | 1.7 | 0.00 | 0.47 | 0.01 | 93 | 1011.9 |
| 20260903091553 | 54 | 212 | 0.0 | 4.3 | 0.00 | 0.47 | 0.01 | 93 | 1012.0 |
| 20260903090101 | 54 | 200 | 0.0 | 2.6 | 0.00 | 0.47 | 0.01 | 94 | 1012.0 |
| 20260903084558 | 54 | 0 | 0.0 | 3.5 | 0.00 | 0.47 | 0.01 | 94 | 1011.9 |
| 20260903083057 | 54 | 0 | 0.0 | 0.9 | 0.00 | 0.47 | 0.01 | 95 | 1012.0 |
| 20260903081604 | 54 | 220 | 0.0 | 2.6 | 0.01 | 0.47 | 0.01 | 95 | 1012.0 |
| 20260903080051 | 54 | 0 | 0.0 | 2.6 | 0.01 | 0.47 | 0.01 | 95 | 1012.1 |
| 20260903074556 | 54 | 0 | 0.0 | 1.7 | 0.01 | 0.47 | 0.01 | 95 | 1012.1 |
| 20260903073056 | 53 | 0 | 0.0 | 0.0 | 0.01 | 0.47 | 0.01 | 95 | 1012.0 |
| 20260903071556 | 53 | 239 | 0.0 | 0.0 | 0.00 | 0.46 | 0.00 | 95 | 1012.1 |
| 20260903070057 | 53 | 0 | 0.0 | 0.0 | 0.00 | 0.46 | 0.00 | 95 | 1012.0 |
| 20260903064555 | 54 | 0 | 0.0 | 0.9 | 0.00 | 0.46 | 0.46 | 95 | 1012.0 |
| 20260903063115 | 54 | 0 | 0.0 | 0.9 | 0.00 | 0.46 | 0.46 | 95 | 1012.0 |
| 20260903061554 | 54 | 0 | 0.0 | 0.9 | 0.00 | 0.46 | 0.46 | 95 | 1012.1 |
| 20260903060116 | 54 | 0 | 0.0 | 0.0 | 0.00 | 0.46 | 0.46 | 95 | 1011.9 |
| 20260903054556 | 54 | 0 | 0.0 | 0.0 | 0.00 | 0.46 | 0.46 | 95 | 1012.0 |
| 20260903053054 | 54 | 0 | 0.0 | 0.0 | 0.00 | 0.46 | 0.46 | 94 | 1012.0 |
| 20260903051605 | 54 | 0 | 0.0 | 0.0 | 0.00 | 0.46 | 0.46 | 94 | 1012.1 |
| 20260903050127 | 54 | 0 | 0.0 | 0.0 | 0.00 | 0.46 | 0.46 | 94 | 1012.0 |
| 20260903044555 | 54 | 0 | 0.0 | 0.0 | 0.00 | 0.46 | 0.46 | 94 | 1011.9 |
| 20260903043103 | 54 | 0 | 0.0 | 0.0 | 0.00 | 0.46 | 0.46 | 94 | 1012.0 |
| 20260903041559 | 55 | 0 | 0.0 | 0.0 | 0.00 | 0.46 | 0.46 | 94 | 1011.8 |
| 20260903040100 | 55 | 0 | 0.0 | 0.0 | 0.00 | 0.46 | 0.46 | 93 | 1011.7 |
| 20260903034552 | 55 | 0 | 0.0 | 0.0 | 0.00 | 0.46 | 0.46 | 92 | 1011.4 |
| 20260903033101 | 56 | 0 | 0.0 | 0.0 | 0.00 | 0.46 | 0.46 | 92 | 1011.3 |
| 20260903031555 | 57 | 0 | 0.0 | 0.0 | 0.00 | 0.46 | 0.46 | 92 | 1011.1 |
| 20260903030054 | 57 | 0 | 0.0 | 0.0 | 0.00 | 0.46 | 0.46 | 92 | 1011.0 |
| 20260903024552 | 58 | 0 | 0.0 | 1.7 | 0.00 | 0.46 | 0.46 | 91 | 1010.9 |
| 20260903023058 | 58 | 0 | 0.0 | 2.6 | 0.00 | 0.46 | 0.46 | 92 | 1010.8 |
| 20260903021555 | 59 | 0 | 0.0 | 0.0 | 0.00 | 0.46 | 0.46 | 91 | 1010.7 |
| 20260903020056 | 59 | 0 | 0.0 | 0.0 | 0.00 | 0.46 | 0.46 | 91 | 1010.6 |
| 20260903014556 | 59 | 0 | 0.0 | 0.0 | 0.04 | 0.46 | 0.46 | 91 | 1010.5 |
| 20260903013054 | 59 | 0 | 0.0 | 0.0 | 0.12 | 0.46 | 0.46 | 91 | 1010.4 |
| 20260903011607 | 59 | 0 | 0.0 | 1.7 | 0.14 | 0.46 | 0.46 | 90 | 1010.1 |
| 20260903010056 | 59 | 212 | 0.0 | 4.3 | 0.15 | 0.46 | 0.46 | 90 | 1010.2 |
| 20260903004553 | 60 | 0 | 0.0 | 2.6 | 0.10 | 0.41 | 0.41 | 91 | 1010.3 |
| 20260903003052 | 61 | 0 | 0.0 | 3.5 | 0.03 | 0.34 | 0.34 | 89 | 1009.6 |
| 20260903001558 | 61 | 67 | 0.9 | 4.3 | 0.01 | 0.32 | 0.32 | 86 | 1009.3 |
| 20260903000054 | 61 | 5 | 0.0 | 10.4 | 0.00 | 0.31 | 0.31 | 87 | 1009.2 |
| 20260902234553 | 60 | 0 | 0.0 | 6.1 | 0.00 | 0.31 | 0.31 | 88 | 1009.3 |
| 20260902233059 | 60 | 0 | 0.9 | 4.3 | 0.01 | 0.31 | 0.31 | 89 | 1009.2 |
| 20260902231605 | 60 | 0 | 0.0 | 3.5 | 0.03 | 0.31 | 0.31 | 90 | 1009.0 |
| 20260902230054 | 60 | 247 | 0.9 | 7.8 | 0.05 | 0.31 | 0.31 | 90 | 1009.0 |
| 20260902224559 | 60 | 0 | 0.9 | 4.3 | 0.06 | 0.31 | 0.31 | 90 | 1009.0 |
| 20260902223106 | 60 | 267 | 0.0 | 6.1 | 0.05 | 0.30 | 0.30 | 90 | 1008.9 |
| 20260902221558 | 60 | 0 | 0.0 | 4.3 | 0.03 | 0.28 | 0.28 | 89 | 1008.7 |
| 20260902214558 | 60 | 69 | 0.0 | 4.3 | 0.01 | 0.25 | 0.25 | 89 | 1008.5 |
| 20260902213056 | 60 | 0 | 0.0 | 5.2 | 0.01 | 0.25 | 0.25 | 89 | 1008.4 |
| 20260902211558 | 60 | 0 | 0.0 | 3.5 | 0.02 | 0.25 | 0.25 | 90 | 1008.5 |